Weather in Davenda

Russia / Zabaykalsky Krai     53°33′13″N   119°19′03″E
temp.,
°C
wind,
m/s
gust,
m/s
humid.,
%
clouds,
%
prec.,
mm/h
press.,
hPa
HPBL,
m
17 june, thu
thu1700:00+10nne41193100 0.4 997753
03:00+9n61595100 2.6 9941260
06:00+9n81993100 10.8 9901342
09:00+8n92194100 19.1 9871296
12:00+8nne92094100 11.5 9851293
15:00+9n71994100 17.6 9831485
18:00+9n51395100 8.0 9831108
21:00+10nnw31098100 10.3 983581
18 june, fri
fri1800:00+10ne4119630 5.5 985655
03:00+9ene51098100 6.4 988865
06:00+8ene51098100 1.3 991799
09:00+8ne3997100 2.9 992788
12:00+8e3897100 1.9 993673
15:00+9e4998100 3.4 995687
18:00+9ene2797100 1.4 996485
21:00+9nne2399100 1.9 998144
19 june, sat
sat1900:00+9nne1299100 3.5 99869
03:00+10ne1599100 4.8 998285
06:00+10n1399100 1.3 998125
09:00+11ne1399100 4.6 999266
12:00+13ne2495100 0.9 1000415
15:00+12ene3797100 5.7 1001446
18:00+12ne1398100 2.6 1002182
21:00+12ne2698100 3.9 1003232
20 june, sun
sun2000:00+12ene31196100 1.9 1005425
03:00+11ne289849 2.1 1006256
06:00+10ne299898 0.0 1008333
09:00+15ene3882100 0.0 1008731
12:00+20e474847 0.0 10071866
15:00+22e464484 0.0 10072382
18:00+20ne3556100 0.0 1007861
21:00+15n228187 0.1 100914
21 june, mon
mon2100:00+12nnw118916 0.0 101011
03:00+11nnw229093 0.0 101117
06:00+13nw118411 0.0 101125
09:00+20ssw115632 0.0 1011565
12:00+24sse224297 0.0 10101959
15:00+24ssw223888 0.0 10092284
18:00+21sw245999 0.0 1010248
21:00+17w117337 0.0 101111